EW0888 Weather Reports


time (UTC)temp
F
wind
direction
speed
knots
gust
knots
rain 1hr
in
rain 24hr
in
rain mn
in
humidity
%
barometer
mb
20260503034049 81 0 0.0 0.9 0.00 0.00 0.00 74 1014.2
20260503033548 81 0 0.0 0.0 0.00 0.00 0.00 74 1014.2
20260503033049 81 0 0.0 0.0 0.00 0.00 0.00 74 1014.2
20260503032548 81 0 0.0 0.0 0.00 0.00 0.00 74 1014.1
20260503032048 81 0 0.0 0.0 0.00 0.00 0.00 74 1014.1
20260503031552 82 0 0.0 0.9 0.00 0.00 0.00 74 1014.1
20260503031049 82 0 0.0 1.7 0.00 0.00 0.00 74 1014.2
20260503030549 82 0 0.0 1.7 0.00 0.00 0.00 73 1014.2
20260503030105 82 333 0.0 1.7 0.00 0.00 0.00 73 1014.1
20260503025548 82 0 0.0 1.7 0.00 0.00 0.00 73 1014.0
20260503025051 82 0 0.0 1.7 0.00 0.00 0.00 73 1014.1
20260503024600 82 0 0.0 1.7 0.00 0.00 0.00 73 1014.0
20260503024049 82 0 0.0 1.7 0.00 0.00 0.00 73 1014.1
20260503023550 82 0 0.0 1.7 0.00 0.00 0.00 73 1014.1
20260503023058 82 0 0.0 1.7 0.00 0.00 0.00 73 1014.1
20260503022549 82 0 0.0 1.7 0.00 0.00 0.00 73 1014.1
20260503022048 82 331 0.0 1.7 0.00 0.00 0.00 72 1014.1
20260503021550 83 0 0.0 3.5 0.00 0.00 0.00 72 1013.9
20260503021049 83 0 0.0 3.5 0.00 0.00 0.00 72 1013.9
20260503020549 83 336 0.0 1.7 0.00 0.00 0.00 72 1014.0
20260503015547 83 0 0.0 2.6 0.00 0.00 0.00 71 1014.0
20260503015048 83 336 0.0 2.6 0.00 0.00 0.00 71 1014.0
20260503014554 83 335 0.0 2.6 0.00 0.00 0.00 71 1014.0
20260503014050 83 0 0.0 2.6 0.00 0.00 0.00 71 1014.0
20260503013548 84 0 0.0 2.6 0.00 0.00 0.00 70 1013.9
20260503013102 84 335 0.0 2.6 0.00 0.00 0.00 70 1013.9
20260503012551 84 0 0.0 2.6 0.00 0.00 0.00 70 1013.7
20260503012047 84 334 0.9 2.6 0.00 0.00 0.00 69 1013.7
20260503011555 84 0 0.0 2.6 0.00 0.00 0.00 69 1013.6
20260503011048 84 333 0.0 2.6 0.00 0.00 0.00 67 1013.5
20260503010548 84 0 0.0 2.6 0.00 0.00 0.00 67 1013.4
20260503010052 84 0 0.9 2.6 0.00 0.00 0.00 68 1013.4
20260503005548 85 333 0.9 3.5 0.00 0.00 0.00 66 1013.4
20260503005047 85 333 0.9 3.5 0.00 0.00 0.00 67 1013.2
20260503004600 85 0 0.0 2.6 0.00 0.00 0.00 67 1013.1
20260503004048 85 0 0.0 2.6 0.00 0.00 0.00 66 1013.1
20260503003548 85 360 0.9 2.6 0.00 0.00 0.00 66 1012.9
20260503003053 85 352 0.9 2.6 0.00 0.00 0.00 65 1012.9
20260503002550 85 0 0.9 2.6 0.00 0.00 0.00 65 1012.8
20260503002048 85 352 0.9 3.5 0.00 0.00 0.00 65 1012.6
20260503001555 85 352 0.9 3.5 0.00 0.00 0.00 64 1012.5
20260503001050 85 273 0.9 2.6 0.00 0.00 0.00 65 1012.6
20260503000547 85 0 0.0 7.0 0.00 0.00 0.00 65 1012.5
20260502235548 85 186 1.7 7.8 0.00 0.00 0.00 70 1012.4
20260502235048 84 182 1.7 7.8 0.00 0.00 0.00 68 1012.2
20260502234601 85 183 0.9 6.1 0.00 0.00 0.00 70 1012.1
20260502234048 85 193 1.7 7.0 0.00 0.00 0.00 69 1012.1
20260502233549 85 197 1.7 7.0 0.00 0.00 0.00 67 1012.0
20260502233050 85 187 3.5 7.0 0.00 0.00 0.00 68 1012.0
20260502232548 85 206 2.6 7.8 0.00 0.00 0.00 67 1011.9
20260502232049 85 185 1.7 7.8 0.00 0.00 0.00 67 1011.7
20260502231552 85 190 2.6 8.7 0.00 0.00 0.00 67 1011.6
20260502231048 85 201 2.6 8.7 0.00 0.00 0.00 67 1011.5
20260502230548 85 194 3.5 9.6 0.00 0.00 0.00 67 1011.3
20260502230053 86 174 3.5 9.6 0.00 0.00 0.00 67 1011.4
20260502225551 86 203 2.6 9.6 0.00 0.00 0.00 67 1011.3
20260502225048 86 183 3.5 9.6 0.00 0.00 0.00 67 1011.3
20260502224555 86 178 2.6 7.0 0.00 0.00 0.00 68 1011.3
20260502224048 86 193 3.5 8.7 0.00 0.00 0.00 68 1011.2
20260502223550 86 186 3.5 9.6 0.00 0.00 0.00 67 1011.2
20260502223101 86 182 3.5 9.6 0.00 0.00 0.00 66 1011.1
20260502222548 87 183 2.6 7.8 0.00 0.00 0.00 67 1011.2
20260502222049 87 192 2.6 9.6 0.00 0.00 0.00 66 1011.3
20260502221557 87 184 2.6 9.6 0.00 0.00 0.00 66 1011.2
20260502221048 87 181 3.5 11.3 0.00 0.00 0.00 65 1011.2
20260502220548 87 190 2.6 11.3 0.00 0.00 0.00 65 1011.3
20260502215548 88 200 2.6 8.7 0.00 0.00 0.00 65 1011.0
20260502215048 88 190 2.6 7.8 0.00 0.00 0.00 65 1011.1
20260502214612 88 215 2.6 7.8 0.00 0.00 0.00 64 1011.1
20260502214048 88 192 3.5 7.0 0.00 0.00 0.00 63 1011.0
20260502213550 89 188 2.6 7.8 0.00 0.00 0.00 63 1010.9
20260502213109 89 156 2.6 7.8 0.00 0.00 0.00 64 1010.9
20260502212548 89 184 2.6 7.8 0.00 0.00 0.00 63 1010.8
20260502212049 89 191 2.6 7.8 0.00 0.00 0.00 63 1010.7
20260502211554 89 196 2.6 9.6 0.00 0.00 0.00 63 1010.7
20260502211048 89 196 2.6 9.6 0.00 0.00 0.00 63 1010.6
20260502210547 89 185 3.5 8.7 0.00 0.00 0.00 63 1010.6
20260502210054 88 177 2.6 8.7 0.00 0.00 0.00 68 1010.6
20260502205551 88 221 3.5 9.6 0.00 0.00 0.00 69 1010.4
20260502205048 88 186 4.3 9.6 0.00 0.00 0.00 69 1010.5
20260502204550 88 165 4.3 9.6 0.00 0.00 0.00 69 1010.6
20260502204051 89 203 5.2 9.6 0.00 0.00 0.00 68 1010.7
20260502203548 89 189 2.6 8.7 0.00 0.00 0.00 66 1010.6
20260502203113 89 185 2.6 8.7 0.00 0.00 0.00 69 1010.7
20260502202553 88 182 3.5 12.2 0.00 0.00 0.00 69 1010.7
20260502202049 88 171 3.5 13.0 0.00 0.00 0.00 69 1010.8
20260502201547 88 181 4.3 13.0 0.00 0.00 0.00 69 1011.0
20260502201052 88 171 5.2 11.3 0.00 0.00 0.00 69 1011.0
20260502200549 89 254 5.2 11.3 0.00 0.00 0.00 69 1011.0
20260502200057 90 159 3.5 9.6 0.00 0.00 0.00 68 1011.0
20260502195549 91 180 3.5 7.8 0.00 0.00 0.00 64 1011.2
20260502195047 91 192 2.6 7.8 0.00 0.00 0.00 60 1011.3
20260502194551 91 191 2.6 7.8 0.00 0.00 0.00 62 1011.4
20260502194047 90 196 2.6 7.8 0.00 0.00 0.00 61 1011.4
20260502193547 90 215 1.7 12.2 0.00 0.00 0.00 64 1011.4
20260502193056 89 184 4.3 12.2 0.00 0.00 0.00 64 1011.5
20260502192548 89 174 4.3 9.6 0.00 0.00 0.00 63 1011.4
20260502192048 89 205 4.3 9.6 0.00 0.00 0.00 63 1011.4
20260502191600 89 170 2.6 9.6 0.00 0.00 0.00 64 1011.4
20260502191049 89 150 2.6 10.4 0.00 0.00 0.00 64 1011.5
20260502190551 89 207 2.6 11.3 0.00 0.00 0.00 65 1011.5
20260502190054 89 159 3.5 11.3 0.00 0.00 0.00 63 1011.6
20260502185548 90 215 2.6 9.6 0.00 0.00 0.00 64 1011.6
20260502185052 90 194 1.7 9.6 0.00 0.00 0.00 63 1011.6
20260502184552 90 186 2.6 8.7 0.00 0.00 0.00 63 1011.6
20260502184048 90 178 3.5 8.7 0.00 0.00 0.00 61 1011.6
20260502183547 89 158 2.6 8.7 0.00 0.00 0.00 63 1011.7
20260502183049 90 177 2.6 8.7 0.00 0.00 0.00 62 1011.7
20260502182552 90 215 3.5 10.4 0.00 0.00 0.00 62 1011.7
20260502182048 90 186 3.5 11.3 0.00 0.00 0.00 60 1011.8
20260502181552 90 207 4.3 11.3 0.00 0.00 0.00 61 1011.9
20260502181049 90 199 2.6 10.4 0.00 0.00 0.00 63 1011.9
20260502180549 89 205 2.6 11.3 0.00 0.00 0.00 64 1011.8
20260502164052 87 198 2.6 12.2 0.00 0.00 0.00 69 1012.5
20260502163550 87 194 3.5 12.2 0.00 0.00 0.00 69 1012.4
20260502163109 87 173 4.3 10.4 0.00 0.00 0.00 69 1012.4
20260502162550 87 192 3.5 10.4 0.00 0.00 0.00 71 1012.5
20260502162049 86 192 5.2 10.4 0.00 0.00 0.00 71 1012.6
20260502161619 86 211 4.3 11.3 0.00 0.00 0.00 71 1012.6
20260502161049 86 203 4.3 13.0 0.00 0.00 0.00 70 1012.7
20260502160549 86 180 3.5 13.0 0.00 0.00 0.00 70 1012.6
20260502152050 83 179 3.5 10.4 0.00 0.00 0.00 75 1013.0
20260502151557 83 168 2.6 12.2 0.00 0.00 0.00 74 1013.1
20260502151049 83 213 1.7 12.2 0.00 0.00 0.00 74 1012.9
20260502150551 84 210 3.5 9.6 0.00 0.00 0.00 74 1013.0
20260502130551 82 171 2.6 7.8 0.00 0.00 0.00 77 1012.4
20260502130105 82 166 1.7 7.0 0.00 0.00 0.00 77 1012.4
20260502123544 81 192 0.9 5.2 0.00 0.00 0.00 78 1012.4
20260502123112 81 203 0.9 5.2 0.00 0.00 0.00 78 1012.3
20260502122545 81 209 1.7 5.2 0.00 0.00 0.00 78 1012.3
20260502122049 81 0 0.9 5.2 0.00 0.00 0.00 79 1012.4
20260502121556 81 186 2.6 9.6 0.00 0.00 0.00 79 1012.4
20260502121048 80 193 1.7 9.6 0.00 0.00 0.00 79 1012.4
20260502120548 80 194 1.7 7.8 0.00 0.00 0.00 79 1012.3
20260502115548 80 181 1.7 6.1 0.00 0.00 0.00 79 1012.3
20260502115048 80 180 1.7 6.1 0.00 0.00 0.00 79 1012.4
20260502114553 80 196 2.6 7.0 0.00 0.00 0.00 79 1012.3
20260502114048 80 148 2.6 7.0 0.00 0.00 0.00 80 1012.3
20260502113548 80 194 0.9 4.3 0.00 0.00 0.00 80 1012.4
20260502113052 80 187 0.9 5.2 0.00 0.00 0.00 79 1012.3
20260502112548 79 202 0.9 8.7 0.00 0.00 0.00 79 1012.3
20260502112048 79 197 2.6 8.7 0.00 0.00 0.00 79 1012.4
20260502111554 79 196 0.0 3.5 0.00 0.00 0.00 79 1012.4
20260502111045 79 0 0.0 4.3 0.00 0.00 0.00 79 1012.5
20260502110545 79 161 0.9 4.3 0.00 0.00 0.00 79 1012.3
20260502110055 79 194 0.9 7.0 0.00 0.00 0.00 79 1012.3
20260502105548 79 194 0.9 7.0 0.00 0.00 0.00 79 1012.3
20260502105047 79 190 1.7 4.3 0.00 0.00 0.00 79 1012.3
20260502104554 79 195 0.9 5.2 0.00 0.00 0.00 80 1012.2
20260502104047 79 202 1.7 6.1 0.00 0.00 0.00 80 1012.1
20260502103551 79 197 0.9 6.1 0.00 0.00 0.00 80 1012.2
20260502103054 79 186 1.7 5.2 0.00 0.00 0.00 80 1012.1
20260502102548 79 190 1.7 5.2 0.00 0.00 0.00 80 1012.2
20260502102047 79 185 1.7 5.2 0.00 0.00 0.00 80 1012.2
20260502101602 79 177 0.9 3.5 0.00 0.00 0.00 80 1012.2
20260502101048 79 0 0.9 4.3 0.00 0.00 0.00 79 1012.2
20260502100548 79 176 1.7 4.3 0.00 0.00 0.00 79 1012.2
20260502091047 79 192 0.9 4.3 0.00 0.00 0.00 80 1012.0
20260502090547 78 211 1.7 4.3 0.00 0.00 0.00 80 1012.0
20260502071049 78 187 0.9 4.3 0.00 0.00 0.00 79 1012.0
20260502070551 78 186 0.9 4.3 0.00 0.00 0.00 79 1011.9
20260502070107 78 189 1.7 4.3 0.00 0.00 0.00 80 1011.9
20260502065551 78 180 0.0 2.6 0.00 0.00 0.00 80 1012.0
20260502065049 79 0 0.0 3.5 0.00 0.00 0.00 80 1011.9
20260502064554 78 176 0.9 3.5 0.00 0.00 0.00 80 1011.9
20260502064049 78 191 0.9 3.5 0.00 0.00 0.00 80 1012.1
20260502063549 78 191 0.9 3.5 0.00 0.00 0.00 80 1012.2
20260502063051 78 0 0.0 3.5 0.00 0.00 0.00 79 1012.3
20260502062549 78 190 0.0 3.5 0.00 0.00 0.00 80 1012.2
20260502062049 78 190 0.9 1.7 0.00 0.00 0.00 80 1012.2
20260502061551 78 0 0.0 3.5 0.00 0.00 0.00 80 1012.2
20260502061051 78 184 0.9 4.3 0.00 0.00 0.00 80 1012.2
20260502060549 78 0 1.7 4.3 0.00 0.00 0.00 80 1012.1
20260502060053 78 168 0.9 4.3 0.00 0.00 0.00 80 1012.2
20260502055550 78 0 0.9 4.3 0.00 0.00 0.00 80 1012.2
20260502055053 78 165 0.9 3.5 0.00 0.00 0.00 80 1012.2
20260502054551 78 203 0.9 4.3 0.00 0.00 0.00 80 1012.2
20260502054049 78 173 0.9 4.3 0.00 0.00 0.00 80 1012.1
20260502053549 78 178 0.0 2.6 0.00 0.00 0.00 80 1012.1
20260502053058 78 0 0.0 1.7 0.00 0.00 0.00 80 1012.3
20260502052549 78 0 0.0 1.7 0.00 0.00 0.00 80 1012.4
20260502052052 78 0 0.0 1.7 0.00 0.00 0.00 80 1012.4
20260502051602 78 177 0.0 1.7 0.00 0.00 0.00 80 1012.4
20260502051049 78 0 0.0 2.6 0.00 0.00 0.00 80 1012.6
20260502050549 78 177 0.0 2.6 0.00 0.00 0.00 80 1012.6
20260502050052 78 177 0.0 2.6 0.00 0.00 0.00 80 1012.7
20260502045553 78 0 0.0 0.9 0.00 0.00 0.00 79 1012.7
20260502045049 78 0 0.0 1.7 0.00 0.00 0.00 79 1012.8
20260502044559 78 0 0.0 1.7 0.00 0.00 0.00 79 1012.9
20260502044052 78 0 0.0 1.7 0.00 0.00 0.00 79 1013.0
20260502043553 78 0 0.0 1.7 0.00 0.00 0.00 79 1012.9
20260502043056 78 0 0.0 1.7 0.00 0.00 0.00 79 1013.1
20260502042548 78 0 0.0 1.7 0.00 0.00 0.00 78 1013.1
20260502042052 78 0 0.0 1.7 0.00 0.00 0.00 78 1013.1
20260502041553 78 0 0.0 1.7 0.00 0.00 0.00 78 1013.2
20260502041052 78 183 0.0 3.5 0.00 0.00 0.00 78 1013.2
20260502040552 78 183 0.0 3.5 0.00 0.00 0.00 78 1013.2
20260502035549 78 183 0.9 2.6 0.00 0.00 0.00 79 1013.3
20260502035049 79 0 0.9 2.6 0.00 0.00 0.00 78 1013.4
20260502034550 79 186 0.9 2.6 0.00 0.00 0.00 78 1013.3